Location: Newark
(50.0306°N, 2.3272°E)
Time: 11:21:06
(UTC+00:00)

Transit 2A Rocket - Pass Details

Date: 08 December 2019
Orbit: 593 x 910 km, 66.7° (Epoch: 21 January)

Event Time Altitude Azimuth Distance (km) Brightness Sun altitude
Rises 19:23:25 0° 275° (W) 2,884 9.1 -33.3°
Reaches altitude 10° 19:26:40 10° 300° (WNW) 1,951 7.8 -33.8°
Enters shadow 19:28:06 14° 319° (NW) 1,717 7.2 -34.0°
Maximum altitude 19:29:05 14° 335° (NNW) 1,664 - -34.2°
Drops below altitude 10° 19:31:30 10° 9° (N) 1,937 - -34.6°
Sets 19:34:43 0° 34° (NE) 2,850 - -35.1°
